Time,TemperatureF,DewpointF,PressureIn,WindDirection,WindDirectionDegrees,WindSpeedMPH,WindSpeedGustMPH,Humidity,HourlyPrecipIn,Conditions,Clouds,dailyrainin,SoftwareType,DateUTC
2013-03-18 00:01:00,14.7,5.0,30.37,NW,325,0.0,1.0,64,0.00,,,0.00,weatherlink.com 1.10,2013-03-18 04:01:00,
2013-03-18 00:16:00,14.4,5.0,30.38,NW,309,1.0,1.0,67,0.00,,,0.00,weatherlink.com 1.10,2013-03-18 04:16:00,
2013-03-18 01:01:00,13.1,5.0,30.40,WNW,300,1.0,1.0,71,0.00,,,0.00,weatherlink.com 1.10,2013-03-18 05:01:00,
2013-03-18 01:16:00,12.7,5.0,30.40,NW,316,0.0,1.0,72,0.00,,,0.00,weatherlink.com 1.10,2013-03-18 05:16:00,
2013-03-18 01:31:00,12.5,5.0,30.40,NW,317,1.0,1.0,73,0.00,,,0.00,weatherlink.com 1.10,2013-03-18 05:31:00,
2013-03-18 01:46:00,12.3,6.0,30.42,NW,325,1.0,2.0,74,0.00,,,0.00,weatherlink.com 1.10,2013-03-18 05:46:00,
2013-03-18 02:01:00,12.3,6.0,30.42,West,280,0.0,1.0,75,0.00,,,0.00,weatherlink.com 1.10,2013-03-18 06:01:00,
2013-03-18 02:16:00,12.0,5.0,30.42,WNW,283,1.0,1.0,74,0.00,,,0.00,weatherlink.com 1.10,2013-03-18 06:16:00,
2013-03-18 02:31:00,11.5,5.0,30.43,WNW,284,0.0,0.0,76,0.00,,,0.00,weatherlink.com 1.10,2013-03-18 06:31:00,
2013-03-18 02:46:00,11.4,6.0,30.43,West,281,0.0,0.0,77,0.00,,,0.00,weatherlink.com 1.10,2013-03-18 06:46:00,
2013-03-18 03:16:00,10.6,5.0,30.42,NW,304,0.0,0.0,77,0.00,,,0.00,weatherlink.com 1.10,2013-03-18 07:16:00,
2013-03-18 03:31:00,10.4,5.0,30.43,WNW,292,0.0,0.0,78,0.00,,,0.00,weatherlink.com 1.10,2013-03-18 07:31:00,
2013-03-18 03:46:00,10.1,5.0,30.43,WNW,292,0.0,0.0,79,0.00,,,0.00,weatherlink.com 1.10,2013-03-18 07:46:00,
2013-03-18 04:01:00,10.0,5.0,30.43,WNW,292,0.0,1.0,80,0.00,,,0.00,weatherlink.com 1.10,2013-03-18 08:01:00,
2013-03-18 04:16:00,9.7,5.0,30.44,WNW,292,0.0,1.0,80,0.00,,,0.00,weatherlink.com 1.10,2013-03-18 08:16:00,
2013-03-18 04:46:00,9.3,5.0,30.45,WNW,292,0.0,1.0,81,0.00,,,0.00,weatherlink.com 1.10,2013-03-18 08:46:00,
2013-03-18 05:01:00,9.1,5.0,30.45,WNW,303,0.0,1.0,82,0.00,,,0.00,weatherlink.com 1.10,2013-03-18 09:01:00,
2013-03-18 05:17:00,8.9,5.0,30.46,West,280,0.0,1.0,82,0.00,,,0.00,weatherlink.com 1.10,2013-03-18 09:17:00,
2013-03-18 05:47:00,8.5,4.0,30.46,NW,311,0.0,1.0,82,0.00,,,0.00,weatherlink.com 1.10,2013-03-18 09:47:00,
2013-03-18 06:02:00,8.3,4.0,30.47,NW,309,0.0,1.0,83,0.00,,,0.00,weatherlink.com 1.10,2013-03-18 10:02:00,
2013-03-18 06:17:00,8.3,4.0,30.47,WSW,256,0.0,1.0,83,0.00,,,0.00,weatherlink.com 1.10,2013-03-18 10:17:00,
2013-03-18 06:32:00,7.9,4.0,30.48,WSW,256,0.0,1.0,83,0.00,,,0.00,weatherlink.com 1.10,2013-03-18 10:32:00,
2013-03-18 06:47:00,7.9,4.0,30.49,WSW,256,0.0,1.0,84,0.00,,,0.00,weatherlink.com 1.10,2013-03-18 10:47:00,
2013-03-18 07:17:00,7.8,4.0,30.50,NW,314,0.0,1.0,84,0.00,,,0.00,weatherlink.com 1.10,2013-03-18 11:17:00,
2013-03-18 07:32:00,8.5,5.0,30.50,NW,314,0.0,1.0,85,0.00,,,0.00,weatherlink.com 1.10,2013-03-18 11:32:00,
2013-03-18 07:47:00,9.8,6.0,30.50,NW,321,0.0,1.0,84,0.00,,,0.00,weatherlink.com 1.10,2013-03-18 11:47:00,
2013-03-18 08:02:00,11.7,8.0,30.51,ESE,120,0.0,1.0,84,0.00,,,0.00,weatherlink.com 1.10,2013-03-18 12:02:00,
2013-03-18 08:17:00,12.0,8.0,30.51,ESE,120,1.0,1.0,82,0.00,,,0.00,weatherlink.com 1.10,2013-03-18 12:17:00,
2013-03-18 08:32:00,13.3,9.0,30.50,East,100,2.0,2.0,81,0.00,,,0.00,weatherlink.com 1.10,2013-03-18 12:32:00,
2013-03-18 08:47:00,14.5,10.0,30.50,SSE,157,0.0,4.0,81,0.00,,,0.00,weatherlink.com 1.10,2013-03-18 12:47:00,
2013-03-18 09:02:00,15.5,10.0,30.50,SE,131,0.0,3.0,79,0.00,,,0.00,weatherlink.com 1.10,2013-03-18 13:02:00,
2013-03-18 09:17:00,16.3,10.0,30.50,ESE,114,1.0,3.0,76,0.00,,,0.00,weatherlink.com 1.10,2013-03-18 13:17:00,
2013-03-18 09:32:00,17.4,10.0,30.50,SE,139,0.0,3.0,71,0.00,,,0.00,weatherlink.com 1.10,2013-03-18 13:32:00,
2013-03-18 09:47:00,18.6,9.0,30.50,ESE,111,0.0,3.0,67,0.00,,,0.00,weatherlink.com 1.10,2013-03-18 13:47:00,
2013-03-18 10:02:00,20.1,10.0,30.50,East,100,2.0,3.0,65,0.00,,,0.00,weatherlink.com 1.10,2013-03-18 14:02:00,
2013-03-18 10:17:00,21.5,10.0,30.50,SSW,200,1.0,5.0,62,0.00,,,0.00,weatherlink.com 1.10,2013-03-18 14:17:00,
2013-03-18 10:32:00,22.6,7.0,30.49,SSW,201,2.0,3.0,51,0.00,,,0.00,weatherlink.com 1.10,2013-03-18 14:32:00,
2013-03-18 10:47:00,22.4,3.0,30.49,NE,53,0.0,4.0,44,0.00,,,0.00,weatherlink.com 1.10,2013-03-18 14:47:00,
2013-03-18 11:02:00,24.4,4.0,30.48,NE,41,4.0,4.0,42,0.00,,,0.00,weatherlink.com 1.10,2013-03-18 15:02:00,
2013-03-18 11:18:00,24.0,3.0,30.48,East,82,3.0,4.0,41,0.00,,,0.00,weatherlink.com 1.10,2013-03-18 15:18:00,
2013-03-18 11:32:00,25.7,5.0,30.47,ESE,102,4.0,5.0,41,0.00,,,0.00,weatherlink.com 1.10,2013-03-18 15:32:00,
2013-03-18 11:48:00,26.8,4.0,30.47,East,97,2.0,5.0,38,0.00,,,0.00,weatherlink.com 1.10,2013-03-18 15:48:00,
2013-03-18 12:03:00,27.3,5.0,30.46,South,181,2.0,4.0,38,0.00,,,0.00,weatherlink.com 1.10,2013-03-18 16:03:00,
2013-03-18 12:18:00,28.2,5.0,30.45,ESE,103,0.0,4.0,38,0.00,,,0.00,weatherlink.com 1.10,2013-03-18 16:18:00,
2013-03-18 12:33:00,28.3,6.0,30.45,NNE,30,1.0,5.0,39,0.00,,,0.00,weatherlink.com 1.10,2013-03-18 16:33:00,
2013-03-18 12:48:00,30.6,8.0,30.44,SE,142,0.0,3.0,38,0.00,,,0.00,weatherlink.com 1.10,2013-03-18 16:48:00,
2013-03-18 13:03:00,30.4,5.0,30.44,ESE,117,2.0,5.0,34,0.00,,,0.00,weatherlink.com 1.10,2013-03-18 17:03:00,
2013-03-18 13:18:00,31.1,5.0,30.43,SSW,207,1.0,3.0,33,0.00,,,0.00,weatherlink.com 1.10,2013-03-18 17:18:00,
2013-03-18 13:33:00,31.5,3.0,30.41,SW,235,0.0,5.0,30,0.00,,,0.00,weatherlink.com 1.10,2013-03-18 17:33:00,
2013-03-18 13:48:00,31.8,3.0,30.41,NNE,25,1.0,4.0,29,0.00,,,0.00,weatherlink.com 1.10,2013-03-18 17:48:00,
2013-03-18 14:03:00,32.4,3.0,30.40,South,181,2.0,4.0,29,0.00,,,0.00,weatherlink.com 1.10,2013-03-18 18:03:00,
2013-03-18 14:18:00,32.9,4.0,30.39,SW,236,1.0,4.0,29,0.00,,,0.00,weatherlink.com 1.10,2013-03-18 18:18:00,
2013-03-18 14:33:00,33.7,4.0,30.38,South,177,0.0,5.0,28,0.00,,,0.00,weatherlink.com 1.10,2013-03-18 18:33:00,
2013-03-18 14:48:00,34.0,3.0,30.37,SSW,208,2.0,3.0,27,0.00,,,0.00,weatherlink.com 1.10,2013-03-18 18:48:00,
2013-03-18 15:03:00,33.9,2.0,30.36,West,269,0.0,3.0,26,0.00,,,0.00,weatherlink.com 1.10,2013-03-18 19:03:00,
2013-03-18 15:18:00,34.0,4.0,30.36,East,85,0.0,4.0,28,0.00,,,0.00,weatherlink.com 1.10,2013-03-18 19:18:00,
2013-03-18 15:33:00,33.8,4.0,30.35,ESE,117,1.0,3.0,28,0.00,,,0.00,weatherlink.com 1.10,2013-03-18 19:33:00,
2013-03-18 15:48:00,34.6,4.0,30.34,ESE,107,1.0,2.0,28,0.00,,,0.00,weatherlink.com 1.10,2013-03-18 19:48:00,
2013-03-18 16:03:00,34.5,4.0,30.34,East,90,2.0,3.0,27,0.00,,,0.00,weatherlink.com 1.10,2013-03-18 20:03:00,
2013-03-18 16:18:00,34.5,4.0,30.33,East,96,2.0,2.0,28,0.00,,,0.00,weatherlink.com 1.10,2013-03-18 20:18:00,
2013-03-18 16:33:00,34.7,4.0,30.33,East,98,2.0,3.0,27,0.00,,,0.00,weatherlink.com 1.10,2013-03-18 20:33:00,
2013-03-18 16:48:00,34.5,4.0,30.32,NNE,22,2.0,3.0,27,0.00,,,0.00,weatherlink.com 1.10,2013-03-18 20:48:00,
2013-03-18 17:03:00,34.2,4.0,30.31,NNE,16,1.0,2.0,28,0.00,,,0.00,weatherlink.com 1.10,2013-03-18 21:03:00,
2013-03-18 17:18:00,34.2,5.0,30.29,North,352,1.0,2.0,29,0.00,,,0.00,weatherlink.com 1.10,2013-03-18 21:18:00,
2013-03-18 17:33:00,34.2,4.0,30.29,NNW,347,1.0,3.0,28,0.00,,,0.00,weatherlink.com 1.10,2013-03-18 21:33:00,
2013-03-18 17:48:00,34.0,4.0,30.28,NNE,13,0.0,2.0,28,0.00,,,0.00,weatherlink.com 1.10,2013-03-18 21:48:00,
2013-03-18 18:03:00,33.8,4.0,30.28,North,349,0.0,2.0,28,0.00,,,0.00,weatherlink.com 1.10,2013-03-18 22:03:00,
2013-03-18 18:19:00,33.6,3.0,30.28,NW,318,0.0,1.0,27,0.00,,,0.00,weatherlink.com 1.10,2013-03-18 22:19:00,
2013-03-18 18:34:00,33.2,4.0,30.27,NW,318,0.0,1.0,29,0.00,,,0.00,weatherlink.com 1.10,2013-03-18 22:34:00,
2013-03-18 18:49:00,32.9,7.0,30.27,NW,318,0.0,0.0,33,0.00,,,0.00,weatherlink.com 1.10,2013-03-18 22:49:00,
2013-03-18 19:04:00,32.3,7.0,30.27,NW,318,0.0,1.0,35,0.00,,,0.00,weatherlink.com 1.10,2013-03-18 23:04:00,
2013-03-18 19:19:00,31.8,9.0,30.26,WNW,297,0.0,1.0,38,0.00,,,0.00,weatherlink.com 1.10,2013-03-18 23:19:00,
2013-03-18 19:34:00,31.2,9.0,30.26,WNW,297,0.0,1.0,39,0.00,,,0.00,weatherlink.com 1.10,2013-03-18 23:34:00,
2013-03-18 19:49:00,30.8,9.0,30.27,WNW,298,0.0,1.0,40,0.00,,,0.00,weatherlink.com 1.10,2013-03-18 23:49:00,
2013-03-18 20:04:00,30.6,11.0,30.27,WNW,301,1.0,1.0,44,0.00,,,0.00,weatherlink.com 1.10,2013-03-19 00:04:00,
2013-03-18 20:19:00,30.4,11.0,30.26,WNW,302,0.0,1.0,44,0.00,,,0.00,weatherlink.com 1.10,2013-03-19 00:19:00,
2013-03-18 20:34:00,30.3,12.0,30.26,WNW,297,0.0,1.0,47,0.00,,,0.00,weatherlink.com 1.10,2013-03-19 00:34:00,
2013-03-18 20:49:00,30.4,13.0,30.25,NW,312,0.0,1.0,48,0.00,,,0.00,weatherlink.com 1.10,2013-03-19 00:49:00,
2013-03-18 21:04:00,30.5,13.0,30.25,NW,318,0.0,2.0,48,0.00,,,0.00,weatherlink.com 1.10,2013-03-19 01:04:00,
2013-03-18 21:19:00,31.0,10.0,30.24,NNW,340,0.0,1.0,41,0.00,,,0.00,weatherlink.com 1.10,2013-03-19 01:19:00,
2013-03-18 21:34:00,32.3,8.0,30.25,East,79,2.0,4.0,36,0.00,,,0.00,weatherlink.com 1.10,2013-03-19 01:34:00,
2013-03-18 22:04:00,32.9,7.0,30.25,SW,222,0.0,5.0,34,0.00,,,0.00,weatherlink.com 1.10,2013-03-19 02:04:00,
2013-03-18 22:19:00,33.1,7.0,30.25,SE,134,0.0,6.0,33,0.00,,,0.00,weatherlink.com 1.10,2013-03-19 02:19:00,
2013-03-18 22:34:00,33.0,7.0,30.25,South,189,0.0,2.0,33,0.00,,,0.00,weatherlink.com 1.10,2013-03-19 02:34:00,
2013-03-18 22:49:00,33.1,6.0,30.25,SE,144,0.0,4.0,32,0.00,,,0.00,weatherlink.com 1.10,2013-03-19 02:49:00,
2013-03-18 23:04:00,33.0,7.0,30.25,SSW,207,5.0,8.0,34,0.00,,,0.00,weatherlink.com 1.10,2013-03-19 03:04:00,
2013-03-18 23:19:00,31.4,16.0,30.25,SE,132,1.0,14.0,53,0.00,,,0.00,weatherlink.com 1.10,2013-03-19 03:19:00,
2013-03-18 23:34:00,29.6,19.0,30.25,South,172,3.0,13.0,66,0.00,,,0.00,weatherlink.com 1.10,2013-03-19 03:34:00,
2013-03-18 23:49:00,28.8,20.0,30.25,SE,129,0.0,4.0,71,0.00,,,0.00,weatherlink.com 1.10,2013-03-19 03:49:00,